Weather reports worldwide

Advertisment
Potsdam, Germany (10379): temperature & dewpoint: 16.01.2019 04:00:00 - 22.01.2019 04:00:00 (CET)Potsdam, Germany (10379): temperature 5cm & temperature -5cm: 16.01.2019 04:00:00 - 22.01.2019 04:00:00 (CET)Potsdam, Germany (10379): temperature -20cm & temperature -100cm: 16.01.2019 04:00:00 - 22.01.2019 04:00:00 (CET)Potsdam, Germany (10379): wind speed & gusts: 16.01.2019 04:00:00 - 22.01.2019 04:00:00 (CET)Potsdam, Germany (10379): wind direction: 16.01.2019 04:00:00 - 22.01.2019 04:00:00 (CET)Potsdam, Germany (10379): reduced air pressure: 16.01.2019 04:00:00 - 22.01.2019 04:00:00 (CET)Potsdam, Germany (10379): visibility: 16.01.2019 04:00:00 - 22.01.2019 04:00:00 (CET)Potsdam, Germany (10379): sunshine duration: 16.01.2019 04:00:00 - 22.01.2019 04:00:00 (CET)Potsdam, Germany (10379): precipitation: 16.01.2019 04:00:00 - 22.01.2019 04:00:00 (CET)
Date & Time tt [°C] td [°C] tt 5cm [°C] tt -5cm [°C] tt -20cm [°C] tt -100cm [°C] ff [km/h] ff [kn] fx [km/h] fx [kn] dd ppp [hPa] vv [km] sd [min] rr [mm]
22.01.2019 04:00:00 -5,0 -6,1 -5,6 -4,1 -0,3 4,0 12 6 18 10 S 1016,3 4,5 0 0,0
22.01.2019 03:00:00 -5,6 -6,7 -7,8 -4,0 -0,2 4,0 12 7 16 9 S 1017,1 4,5 0 0,0
22.01.2019 02:00:00 -5,3 -6,4 -7,0 -3,7 -0,1 4,0 10 6 15 8 S 1017,6 5 0 0,0
22.01.2019 01:00:00 -5,4 -6,5 -7,8 -3,4 -0,1 4,0 14 8 23 13 SSW 1018,0 6 0 0,0
22.01.2019 00:00:00 -4,9 -6,2 -6,6 -2,9 -0,1 4,0 15 8 21 11 SSW 1018,4 5 0 0,0
21.01.2019 23:00:00 -4,1 -5,4 -4,5 -2,7 -0,1 4,1 11 6 20 11 SSW 1018,8 5 0 0,0
21.01.2019 22:00:00 -4,5 -5,6 -5,1 -3,0 0,0 4,1 14 8 20 11 SSW 1019,2 4,5 0 0,0
21.01.2019 21:00:00 -4,5 -5,4 -6,2 -2,9 0,0 4,1 10 5 23 13 SSW 1019,6 5 0 0,0
21.01.2019 20:00:00 -4,3 -5,3 -5,3 -2,9 0,0 4,1 13 7 21 11 S 1019,7 4,5 0 0,0
21.01.2019 19:00:00 -4,1 -5,2 -6,4 -2,3 0,0 4,1 9 5 31 17 S 1020,0 5 0 0,0
21.01.2019 18:00:00 -3,7 -5,0 -4,6 -2,3 0,0 4,1 16 8 22 12 S 1020,2 6 0 0,0
21.01.2019 17:00:00 -3,5 -5,0 -4,6 -2,0 0,1 4,1 13 7 23 12 S 1020,4 5 16 0,0
21.01.2019 16:00:00 -2,7 -4,8 -3,8 -1,8 0,1 4,1 11 6 20 11 S 1020,6 10 60 0,0
21.01.2019 15:00:00 -2,1 -4,8 -3,7 -1,4 0,1 4,1 8 5 17 9 SSW 1021,3 12 60 0,0
21.01.2019 14:00:00 -2,0 -5,6 -3,4 -0,9 0,1 4,2 11 6 16 9 SSW 1022,0 10 56 0,0
21.01.2019 13:00:00 -2,9 -5,3 -3,2 -0,7 0,1 4,2 9 5 18 10 SSW 1022,7 7 29 0,0
21.01.2019 12:00:00 -3,5 -5,3 -3,0 -0,9 0,1 4,2 6 4 12 7 SSW 1023,3 6 0 0,0
21.01.2019 11:00:00 -4,5 -5,8 -3,9 -1,2 0,1 4,2 7 4 17 9 SW 1024,1 4,0 0 0,0
21.01.2019 10:00:00 -4,9 -5,6 -4,4 -1,4 0,1 4,2 8 4 15 8 S 1024,1 2,5 0 0,0
21.01.2019 09:00:00 -4,6 -5,5 -4,3 -1,5 0,1 4,2 9 5 14 8 S 1024,0 3,5 0 0,0
21.01.2019 08:00:00 -4,5 -5,3 -4,3 -1,5 0,1 4,2 6 3 13 7 SSW 1023,9 4,0 0 0,0
21.01.2019 07:00:00 -4,2 -5,2 -4,2 -1,4 0,1 4,2 7 4 15 8 SSW 1023,5 4,5 0 0,0
21.01.2019 06:00:00 -3,7 -5,0 -3,6 -1,3 0,1 4,3 6 3 12 7 SW 1023,7 5 0 0,0
21.01.2019 05:00:00 -3,7 -4,8 -3,6 -1,3 0,1 4,3 3 2 10 5 WSW 1024,0 5 0 0,0
21.01.2019 04:00:00 -3,7 -4,9 -3,6 -1,3 0,1 4,3 6 3 10 5 WSW 1024,1 5 0 0,0
21.01.2019 03:00:00 -3,3 -4,6 -3,4 -1,2 0,1 4,3 5 3 9 5 W 1024,1 5 0 0,0
21.01.2019 02:00:00 -3,1 -4,2 -3,2 -1,2 0,1 4,3 3 2 7 4 WNW 1024,1 6 0 0,0
21.01.2019 01:00:00 -2,9 -4,2 -3,0 -1,3 0,1 4,3 3 2 7 4 WNW 1024,1 6 0 0,0
21.01.2019 00:00:00 -2,8 -4,1 -2,9 -1,3 0,1 4,3 3 1 8 5 WNW 1024,1 6 0 0,0
20.01.2019 23:00:00 -2,6 -3,8 -2,8 -1,4 0,1 4,3 3 1 11 6 NNE 1023,8 6 0 0,0
20.01.2019 22:00:00 -2,7 -4,0 -2,9 -1,6 0,1 4,4 4 2 11 6 NNE 1023,5 6 0 0,0
20.01.2019 21:00:00 -2,4 -3,5 -2,7 -1,9 0,1 4,4 2 1 9 5 ENE 1022,8 6 0 0,0
20.01.2019 20:00:00 -2,4 -3,4 -3,1 -2,4 0,2 4,4 3 2 10 6 ENE 1022,2 8 0 0,0
20.01.2019 19:00:00 -3,0 -3,7 -4,0 -3,1 0,2 4,4 5 3 13 7 NE 1021,7 12 0 0,0
20.01.2019 18:00:00 -3,0 -4,0 -7,3 -3,0 0,2 4,4 8 5 13 7 NNE 1021,2 15 0 0,0
20.01.2019 17:00:00 -1,5 -3,4 -6,1 -2,6 0,2 4,4 8 4 14 7 N 1020,8 15 23 0,0
20.01.2019 16:00:00 -0,5 -4,5 -5,2 -2,1 0,2 4,4 4 2 8 5 NNE 1020,4 16 60 0,0
20.01.2019 15:00:00 0,4 -4,8 -3,7 -1,7 0,3 4,4 3 2 8 4 E 1020,0 20 60 0,0
20.01.2019 14:00:00 1,0 -4,8 -2,5 -1,4 0,3 4,4 4 2 7 4 E 1019,8 25 60 0,0
20.01.2019 13:00:00 0,0 -4,8 -1,8 -1,3 0,3 4,5 5 3 10 5 ESE 1020,0 16 60 0,0
20.01.2019 12:00:00 -1,9 -4,0 -4,1 -2,8 0,3 4,5 6 3 11 6 E 1020,1 15 60 0,0
20.01.2019 11:00:00 -3,7 -4,8 -5,8 -3,0 0,3 4,5 9 5 14 7 E 1020,1 15 60 0,0
20.01.2019 10:00:00 -4,7 -5,7 -6,2 -3,1 0,4 4,5 10 5 16 9 E 1019,6 15 58 0,0
20.01.2019 09:00:00 -5,4 -6,4 -6,7 -3,1 0,4 4,5 14 7 18 10 E 1019,0 14 14 0,0
20.01.2019 08:00:00 -5,6 -6,5 -7,0 -2,9 0,4 4,5 15 8 17 9 E 1018,8 16 0 0,0
20.01.2019 07:00:00 -5,3 -6,2 -6,3 -2,7 0,5 4,5 15 8 18 10 E 1018,4 16 0 0,0
20.01.2019 06:00:00 -4,9 -5,7 -6,3 -2,5 0,5 4,6 16 8 17 9 E 1018,3 18 0 0,0
20.01.2019 05:00:00 -4,6 -5,4 -5,9 -2,3 0,5 4,6 15 8 17 9 E 1018,2 18 0 0,0
20.01.2019 04:00:00 -4,5 -5,2 -5,8 -2,1 0,6 4,6 15 8 16 9 E 1018,4 18 0 0,0
20.01.2019 03:00:00 -4,1 -4,8 -5,6 -1,9 0,6 4,6 13 7 17 9 ESE 1018,4 20 0 0,0
20.01.2019 02:00:00 -3,8 -4,5 -5,2 -1,7 0,6 4,6 15 8 19 10 E 1018,5 20 0 0,0
20.01.2019 01:00:00 -3,6 -4,3 -4,9 -1,6 0,7 4,6 16 9 20 11 E 1018,7 20 0 0,0
20.01.2019 00:00:00 -3,2 -3,9 -5,0 -1,4 0,7 4,6 16 8 19 10 E 1019,0 22 0 0,0
19.01.2019 23:00:00 -3,1 -3,8 -4,5 -1,2 0,7 4,6 14 8 18 10 E 1019,2 22 0 0,0
19.01.2019 22:00:00 -2,5 -3,4 -5,1 -1,0 0,8 4,7 14 8 19 10 ESE 1019,3 22 0 0,0
19.01.2019 21:00:00 -2,1 -3,1 -3,8 -0,8 0,8 4,7 14 8 18 10 ESE 1019,4 25 0 0,0
19.01.2019 20:00:00 -1,9 -3,0 -4,2 -0,7 0,8 4,7 13 7 18 10 ESE 1019,5 28 0 0,0
19.01.2019 19:00:00 -1,3 -2,8 -4,4 -0,5 0,9 4,7 11 6 14 8 ESE 1019,4 26 0 0,0
19.01.2019 18:00:00 -0,6 -2,7 -4,0 -0,4 0,9 4,7 9 5 10 5 E 1019,5 17 0 0,0
19.01.2019 17:00:00 -0,4 -2,7 -3,9 -0,3 0,9 4,7 5 3 10 6 SE 1019,6 18 0 0,0
19.01.2019 16:00:00 0,5 -2,5 -2,5 -0,1 0,9 4,7 8 4 11 6 S 1019,9 21 0 0,0
19.01.2019 15:00:00 1,7 -2,3 -0,5 -0,1 0,9 4,7 6 3 10 5 S 1020,1 22 60 0,0
19.01.2019 14:00:00 2,7 -2,8 0,2 0,0 1,0 4,7 3 1 10 5 W 1020,1 28 60 0,0
19.01.2019 13:00:00 2,4 -2,9 0,8 -0,1 1,0 4,7 3 2 10 5 SW 1020,6 26 60 0,0
19.01.2019 12:00:00 1,5 -2,8 -1,0 -0,1 1,0 4,8 4 2 9 5 W 1021,1 24 60 0,0
19.01.2019 11:00:00 0,0 -2,6 -2,3 -0,2 1,0 4,8 3 2 11 6 SW 1021,4 22 60 0,0
19.01.2019 10:00:00 -1,7 -3,0 -3,5 -0,3 1,0 4,8 9 5 16 9 SSW 1021,5 20 57 0,0
19.01.2019 09:00:00 -2,4 -3,5 -4,4 -0,2 1,1 4,8 8 4 13 7 SW 1021,2 17 0 0,0
19.01.2019 08:00:00 -2,2 -3,2 -4,4 0,0 1,1 4,8 11 6 13 7 SSW 1020,8 22 0 0,0
19.01.2019 07:00:00 -1,7 -2,9 -4,2 0,1 1,1 4,8 12 6 16 8 SW 1020,7 30 0 0,0
19.01.2019 06:00:00 -0,3 -2,7 -3,4 0,1 1,1 4,8 5 3 14 7 SW 1020,6 35 0 0,0
19.01.2019 05:00:00 0,7 -2,2 0,0 0,2 1,2 4,8 11 6 20 11 W 1020,7 45 0 0,0
19.01.2019 04:00:00 0,9 -2,4 0,1 0,2 1,2 4,9 11 6 23 13 WNW 1020,7 45 0 0,0
19.01.2019 03:00:00 0,9 -2,3 0,1 0,2 1,2 4,9 11 6 24 13 W 1020,8 45 0 0,0
19.01.2019 02:00:00 0,6 -1,6 -0,1 0,1 1,2 4,9 8 4 16 9 W 1020,8 40 0 0,0
19.01.2019 01:00:00 0,5 -1,5 -0,3 0,1 1,2 4,9 9 5 14 7 W 1020,8 40 0 0,0
19.01.2019 00:00:00 0,5 -1,8 -0,4 0,1 1,2 4,9 10 5 24 13 W 1021,0 40 0 0,0
18.01.2019 23:00:00 0,9 -1,9 0,2 0,1 1,3 4,9 15 8 25 14 WNW 1020,8 40 0 0,0
18.01.2019 22:00:00 0,8 -1,5 0,1 0,1 1,3 4,9 13 7 22 12 W 1020,4 45 0 0,0
18.01.2019 21:00:00 0,8 -1,6 0,0 0,1 1,3 4,9 14 8 25 13 W 1019,8 50 0 0,0
18.01.2019 20:00:00 0,5 -1,9 -0,2 0,1 1,4 4,9 14 8 24 13 WSW 1019,6 50 0 0,0
18.01.2019 19:00:00 0,4 -2,3 -0,4 0,1 1,4 4,9 16 9 31 17 WSW 1019,2 50 0 0,0
18.01.2019 18:00:00 0,1 -2,7 -0,8 0,1 1,4 4,9 18 10 27 15 SW 1019,1 50 0 0,0
18.01.2019 17:00:00 -1,1 -3,8 -3,7 0,2 1,5 4,9 17 9 25 13 SW 1018,8 50 18 0,0
18.01.2019 16:00:00 0,6 -4,0 -1,9 0,2 1,5 4,9 14 8 27 14 WSW 1018,7 55 60 0,0
18.01.2019 15:00:00 0,9 -4,5 -1,5 0,3 1,6 4,9 17 9 32 17 WSW 1018,5 55 60 0,0
18.01.2019 14:00:00 1,2 -4,6 -1,2 0,3 1,6 4,9 18 10 30 16 WSW 1018,5 55 60 0,0
18.01.2019 13:00:00 1,2 -4,4 -0,6 0,3 1,7 4,9 15 8 26 14 WSW 1018,3 55 59 0,0
18.01.2019 12:00:00 0,2 -4,2 -1,4 0,3 1,7 4,9 17 9 27 14 W 1018,0 55 60 0,0
18.01.2019 11:00:00 -0,7 -3,5 -2,1 0,4 1,8 4,9 17 9 32 17 WNW 1017,7 55 60 0,0
18.01.2019 10:00:00 -1,5 -3,8 -2,8 0,4 1,9 4,9 18 10 33 18 WNW 1016,9 55 60 0,0
18.01.2019 09:00:00 -1,7 -4,5 -3,2 0,5 2,0 4,9 16 9 32 18 WNW 1015,8 50 12 0,0
18.01.2019 08:00:00 -1,2 -5,0 -2,4 0,5 2,0 4,9 21 12 40 22 WNW 1014,2 50 0 0,0
18.01.2019 07:00:00 -0,9 -4,6 -2,0 0,6 2,1 4,9 22 12 43 23 NW 1012,5 50 0 0,2
18.01.2019 06:00:00 -0,3 -2,3 -0,9 0,6 2,2 4,9 23 12 40 22 WNW 1011,0 48 0 0,0
18.01.2019 05:00:00 -0,7 -1,8 -1,2 0,7 2,4 4,9 22 12 37 20 WNW 1009,9 48 0 0,0
18.01.2019 04:00:00 -0,9 -2,7 -1,7 0,8 2,5 4,9 16 9 41 22 NW 1008,6 25 0 0,0
18.01.2019 03:00:00 -0,7 -1,7 -0,6 0,9 2,7 4,9 19 10 55 30 NW 1007,3 18 0 0,2
18.01.2019 02:00:00 1,1 -1,1 0,4 1,4 2,8 4,9 29 15 49 27 W 1004,8 28 0 0,0
18.01.2019 01:00:00 1,4 -0,4 0,8 1,4 3,0 4,9 29 16 47 26 W 1004,2 23 0 0,5
18.01.2019 00:00:00 1,8 0,1 1,3 2,0 3,1 4,9 21 11 44 24 WSW 1003,6 40 0 0,0
17.01.2019 23:00:00 1,9 0,5 1,2 2,3 3,2 4,9 23 12 45 24 WSW 1002,9 35 0 0,1
17.01.2019 22:00:00 2,5 1,7 2,1 2,5 3,2 4,9 22 12 43 23 WSW 1002,0 28 0 0,0
17.01.2019 21:00:00 2,3 1,8 2,1 2,6 3,2 4,9 21 12 34 19 W 1001,1 35 0 0,0
17.01.2019 20:00:00 2,1 1,5 1,9 2,6 3,3 4,9 21 11 40 22 W 999,8 30 0 1,0
17.01.2019 19:00:00 2,8 2,2 2,4 2,8 3,4 4,9 18 10 38 21 W 999,0 10 0 2,4
17.01.2019 18:00:00 3,9 2,3 3,2 2,8 3,5 4,9 21 12 36 20 W 998,7 10 0 0,6
17.01.2019 17:00:00 4,5 0,9 2,3 2,6 3,6 4,9 15 8 27 15 SSW 998,5 40 0 0,0
17.01.2019 16:00:00 5,1 0,4 2,4 3,4 3,7 4,9 14 7 38 21 SW 998,7 40 25 0,0
17.01.2019 15:00:00 6,2 -0,1 5,2 4,0 3,6 4,9 25 14 41 22 WSW 998,9 50 37 0,0
17.01.2019 14:00:00 6,5 0,3 5,3 4,3 3,5 4,9 22 12 38 20 WSW 999,3 50 41 0,0
17.01.2019 13:00:00 6,0 1,1 5,7 4,6 3,3 4,9 16 8 36 19 WSW 1000,1 50 0 0,0
17.01.2019 12:00:00 5,7 1,5 5,5 4,0 3,2 4,9 19 10 34 18 WSW 1000,5 45 0 0,0
17.01.2019 11:00:00 5,5 1,5 5,4 3,6 3,0 4,9 19 10 34 19 WSW 1000,7 45 0 0,0
17.01.2019 10:00:00 5,2 1,6 4,7 3,0 2,9 4,9 23 12 41 22 WSW 1000,2 45 0 0,0
17.01.2019 09:00:00 4,9 1,7 4,2 2,7 2,9 4,9 23 12 43 23 WSW 999,7 40 0 0,0
17.01.2019 08:00:00 5,0 1,4 4,2 2,6 2,8 4,9 24 13 42 23 WSW 999,0 45 0 0,0
17.01.2019 07:00:00 4,7 1,2 3,9 2,4 2,8 4,9 22 12 37 20 WSW 998,8 45 0 0,0
17.01.2019 06:00:00 4,4 0,7 3,6 2,1 2,7 4,9 22 12 36 20 SW 998,5 40 0 0,0
17.01.2019 05:00:00 3,9 0,2 3,2 1,9 2,7 4,9 20 11 36 20 SW 998,5 45 0 0,0
17.01.2019 04:00:00 3,8 0,0 3,0 1,4 2,8 4,8 24 13 41 22 SW 998,6 45 0 0,0
17.01.2019 03:00:00 3,2 -0,2 1,7 1,2 3,0 4,8 19 10 37 20 SW 999,2 45 0 0,0
17.01.2019 02:00:00 2,6 -0,2 1,1 1,3 3,2 4,8 17 9 32 17 SSW 999,5 40 0 0,0
17.01.2019 01:00:00 2,4 -0,1 0,6 1,5 3,5 4,8 15 8 31 17 SSW 1000,2 40 0 0,0
17.01.2019 00:00:00 2,6 -0,1 1,2 2,0 3,7 4,8 16 9 27 15 SW 1001,3 45 0 0,0
16.01.2019 23:00:00 3,1 0,1 1,6 2,6 3,9 4,8 16 9 31 17 SSW 1002,2 45 0 0,0
16.01.2019 22:00:00 3,7 0,3 2,8 3,2 4,0 4,8 16 9 31 17 SW 1002,9 45 0 0,0
16.01.2019 21:00:00 4,7 0,5 4,0 3,8 4,1 4,8 19 10 35 19 SW 1003,7 45 0 0,0
16.01.2019 20:00:00 5,0 0,8 4,5 4,0 4,1 4,8 18 10 39 21 SW 1004,4 45 0 0,0
16.01.2019 19:00:00 5,4 1,4 4,9 4,2 4,2 4,8 20 11 41 22 SW 1004,8 45 0 0,0
16.01.2019 18:00:00 5,8 2,3 5,2 4,4 4,2 4,8 23 12 41 22 SW 1005,1 45 0 0,0
16.01.2019 17:00:00 6,0 3,0 5,4 4,6 4,2 4,8 21 11 38 21 SW 1005,6 40 0 0,0
16.01.2019 16:00:00 6,4 3,1 5,6 4,9 4,1 4,8 22 12 41 22 SW 1005,9 40 0 0,0
16.01.2019 15:00:00 6,6 3,6 5,9 5,2 4,0 4,8 18 10 39 21 SW 1006,3 40 0 0,0
16.01.2019 14:00:00 6,6 3,3 5,9 5,0 3,9 4,8 17 9 35 19 SW 1006,9 38 0 0,0
16.01.2019 13:00:00 6,5 3,4 5,7 4,9 3,8 4,8 23 12 40 22 SW 1007,5 38 0 0,0
16.01.2019 12:00:00 6,3 3,6 5,6 4,6 3,7 4,8 19 10 34 18 SW 1008,1 35 0 0,0
16.01.2019 11:00:00 6,0 3,4 5,1 4,3 3,7 4,8 16 9 37 20 SW 1008,7 26 0 0,0
16.01.2019 10:00:00 6,1 3,8 5,1 4,1 3,6 4,8 23 13 35 19 WSW 1008,8 27 0 0,0
16.01.2019 09:00:00 5,9 3,4 4,8 4,0 3,6 4,8 21 11 37 20 WSW 1008,8 22 0 0,0
16.01.2019 08:00:00 5,8 3,6 4,7 4,0 3,6 4,8 23 12 44 24 WSW 1008,7 25 0 0,0
16.01.2019 07:00:00 5,9 3,6 4,7 4,1 3,5 4,8 26 14 42 23 W 1008,5 25 0 0,0
16.01.2019 06:00:00 6,3 4,5 5,3 4,3 3,4 4,9 25 14 43 23 W 1008,6 16 0 0,0
16.01.2019 05:00:00 6,2 5,0 5,5 4,3 3,3 4,9 26 14 47 25 W 1008,9 15 0 0,3
16.01.2019 04:00:00 6,7 4,9 5,9 4,2 3,2 4,9 32 17 51 28 W 1008,8 20 0 0,0

tt = temperature
td = dewpoint
tt 5cm = temperature 5cm
tt -5cm = temperature -5cm
tt -20cm = temperature -20cm
tt -100cm = temperature -100cm
ff = wind speed
fx = gusts
dd = wind direction
ppp = reduced air pressure
vv = visibility
sd = sunshine duration
rr = precipitation

Next stations